Presure
189 133 104 75 110 149 85 104 100 127 134 108 103 108 129 118 116 102 128 116 107 107 98 112 119 105 123 120 101 84 96 111 104 87 92 106 99 87 82 83 78 85 79 78
133 139 161 151 80 93 130 100 119 124 139 124 123 122 106 124 131 116 115 124 112 115 97 99 90 90 100 99 97 112 96 90 106 87 94 85 91 91 79 90 104 75 122 88
152 167 153 131 143 79 138 99 152 142 104 130 101 120 138 103 119 132 123 119 125 120 108 107 116 111 102 108 97 100 97 98 98 101 99 103 96 93 90 86 98 126 122 93
162 144 183 196 140 121 181 105 89 125 201 87 99 181 125 108 102 121 128 123 127 124 122 98 109 121 117 113 109 110 116 103 98 96 90 96 100 93 90 88 110 120 90 90
141 132 184 166 94 165 94 118 129 157 154 188 93 101 127 132 123 106 115 128 117 110 118 104 110 110 113 113 104 96 101 90 99 80 107 107 87 87 96 97 112 90 88 110
128 174 201 210 162 161 173 193 152 129 165 165 175 127 152 111 122 103 110 100 132 131 106 110 117 109 120 103 106 105 103 102 106 98 100 113 110 96 109 104 103 94 92 94
138 123 163 182 152 145 178 154 128 85 61 141 119 167 163 96 181 160 102 112 109 115 126 103 120 112 116 122 100 101 99 104 103 106 113 104 112 98 103 107 108 88 94 91
238 170 196 231 185 109 150 162 163 187 127 157 100 102 162 137 149 129 132 90 103 113 109 145 107 106 104 109 108 106 67 113 101 93 105 102 107 111 110 95 98 101 111 122
238 200 213 160 183 105 170 184 154 186 110 174 178 120 128 99 158 84 197 155 127 143 115 102 103 101 105 109 107 106 107 107 106 101 101 93 107 109 93 78 118 105 104 102
244 243 213 235 152 233 160 145 186 171 194 193 137 155 97 91 153 175 131 140 98 131 128 147 101 89 103 104 104 112 107 99 100 106 115 85 103 106 124 102 98 182 88 108
237 244 233 233 205 220 236 163 193 169 166 201 101 126 150 128 91 154 144 113 117 161 108 83 109 116 127 89 128 116 120 125 112 147 90 158 111 102 89 98 128 103 90 129
229 230 241 238 226 160 233 238 178 174 209 179 179 138 164 159 115 149 89 171 183 185 83 179 135 136 125 123 109 80 150 141 114 121 139 191 135 132 128 104 94 91 90 116
219 246 247 249 239 193 229 236 239 204 167 202 146 156 136 130 103 145 167 153 105 134 173 140 185 139 111 146 168 125 122 119 160 146 149 103 135 113 88 88 121 110 119 150
228 229 245 250 240 198 186 235 231 233 200 160 212 152 141 150 135 137 152 160 138 122 155 126 84 178 155 132 182 154 138 136 149 167 126 125 95 122 103 137 121 120 152 120
230 237 227 244 249 241 234 226 160 199 117 174 176 192 155 148 147 155 160 149 113 142 128 166 155 159 183 160 161 178 176 181 180 173 102 173 171 143 160 156 182 114 180 152
237 241 242 232 236 250 243 238 225 229 239 247 196 168 165 154 134 89 163 163 125 150 152 173 170 148 143 183 130 184 90 180 181 140 91 182 179 106 160 159 146 178 155 66
247 243 244 248 235 229 242 253 254 244 249 245 248 231 154 90 175 179 160 161 149 153 120 144 156 147 148 160 169 186 116 180 170 165 143 126 182 168 164 134 167 167 175 163
284 285 261 245 243 241 258 240 253 259 249 266 268 251 241 162 186 156 106 76 165 154 157 158 150 123 149 121 161 157 166 125 144 167 104 65 114 100 75 154 163 178 154 181
276 279 276 262 260 268 265 267 266 245 245 254 114 261 281 238 208 102 213 191 152 170 167 162 163 166 164 115 116 160 119 142 106 148 154 107 177 155 164 171 169 140 153 156
253 252 249 245 250 252 253 242 241 243 260 257 285 319 270 266 262 266 224 176 171 168 162 182 169 164 173 152 154 167 128 167 165 156 162 160 153 147 177 177 185 156 156 149
232 231 233 234 236 237 230 230 240 251 252 277 220 287 271 309 276 290 253 232 222 199 163 179 154 182 168 173 114 120 158 169 160 159 161 166 164 164 170 168 157 145 137 138
224 225 228 230 229 224 226 222 225 274 258 275 262 277 277 298 295 259 278 253 232 140 173 186 176 165 164 146 108 183 172 170 156 140 125 153 164 170 171 158 184 177 175 178
214 218 214 214 217 219 222 218 261 253 184 253 253 285 308 264 280 301 251 273 241 227 205 199 176 175 177 174 166 165 175 187 183 181 170 117 188 183 179 181 111 183 187 179
207 206 227 279 267 253 208 261 246 250 252 246 255 274 281 283 255 285 275 266 234 285 210 213 196 177 171 184 187 188 88 155 190 192 187 165 179 180 174 164 177 185 187 184
271 260 250 243 257 254 253 243 258 265 260 263 266 263 265 262 267 279 281 233 272 270 226 225 222 212 200 196 198 199 201 202 186 183 172 183 190 191 180 176 182 180 185 190
278 257 245 240 251 242 248 232 235 237 242 249 246 249 256 257 257 264 263 264 267 233 258 263 246 214 227 190 180 209 214 210 203 202 192 195 196 194 191 174 195 181 183 258
Wind_Speed
108 103 81 61 66 103 60 75 68 83 85 68 71 66 73 73 71 62 70 67 63 61 54 59 61 52 61 59 52 39 47 53 49 40 45 49 46 39 37 38 35 40 39 37
108 86 104 95 58 55 94 74 84 84 91 85 81 76 65 75 78 72 70 72 67 69 54 52 48 49 54 53 51 55 49 47 52 43 48 39 45 47 37 47 52 35 58 48
107 117 98 85 105 52 74 81 97 89 75 84 69 77 86 72 72 77 78 74 75 69 63 62 67 62 57 59 50 54 55 52 53 53 50 53 51 48 47 46 53 63 62 54
130 101 112 118 86 85 105 80 64 96 95 55 69 91 80 69 66 75 81 76 75 73 73 61 66 71 67 63 63 60 62 57 53 52 50 54 55 52 51 50 62 65 52 54
89 107 119 127 86 109 79 96 95 107 102 101 65 70 82 81 80 76 75 80 71 69 75 69 69 67 68 68 61 57 58 52 58 45 62 63 51 52 60 61 63 58 52 65
94 130 124 124 131 123 113 116 109 88 109 96 99 84 83 74 88 75 77 66 83 85 70 73 76 70 74 64 67 65 62 63 65 62 63 68 66 63 68 66 67 61 59 64
105 87 104 126 121 103 118 107 91 62 39 84 64 78 80 75 87 92 75 79 75 79 84 69 77 73 75 76 66 67 65 69 67 69 72 70 72 66 69 71 70 64 65 65
105 131 106 110 126 105 122 126 122 116 90 95 75 77 95 98 73 99 94 65 71 83 79 84 75 70 70 72 73 73 45 74 69 67 72 71 74 76 73 66 74 77 76 80
102 120 115 135 131 95 121 127 113 123 91 119 110 84 94 59 109 58 91 93 90 98 85 75 74 70 74 77 73 75 76 75 77 73 75 71 75 75 63 50 83 79 81 81
97 102 117 114 117 122 129 104 129 121 120 117 95 104 82 82 111 107 74 91 78 88 92 75 74 65 76 76 74 83 80 73 77 80 85 64 78 80 89 78 82 78 73 88
100 100 109 114 117 120 122 136 117 130 121 120 94 94 98 98 56 111 102 90 87 97 85 59 90 92 93 64 92 89 92 94 89 88 67 89 85 81 76 84 90 82 80 90
102 107 106 113 120 135 121 122 136 133 127 124 113 87 117 117 97 108 69 115 100 92 60 96 104 101 93 94 89 57 102 100 91 93 97 84 98 96 92 88 78 84 85 93
103 101 102 106 117 128 117 119 123 131 127 121 99 105 106 104 106 111 119 112 88 99 107 98 95 95 93 93 99 96 97 91 92 103 103 86 100 91 78 80 94 94 96 99
107 105 102 102 111 114 117 118 122 128 133 110 121 122 112 117 116 111 116 116 104 92 98 84 77 99 103 79 98 110 106 100 107 98 98 97 90 97 92 98 96 97 102 90
109 106 103 101 104 108 115 123 98 115 95 132 123 115 127 118 115 126 129 116 91 100 93 111 100 107 96 100 97 100 101 97 99 102 93 101 98 107 100 92 95 100 99 108
110 107 104 102 104 102 112 119 124 125 121 128 125 121 123 126 87 75 125 124 107 109 107 117 113 100 105 103 94 102 87 102 101 101 86 99 101 96 111 109 103 100 110 47
106 105 103 100 103 109 113 101 104 112 106 116 120 124 134 51 111 123 127 130 124 114 96 104 111 107 107 116 114 105 99 106 111 111 104 99 102 103 105 103 109 110 109 109
85 90 101 97 103 113 91 102 98 97 103 100 106 111 122 133 132 130 93 58 129 125 122 122 115 104 114 103 117 113 118 88 102 112 74 49 79 75 61 113 112 109 110 109
74 80 83 85 90 90 85 80 83 94 95 96 89 95 90 121 128 84 121 119 114 127 127 128 128 129 127 95 106 125 107 111 105 107 114 81 111 113 112 113 114 111 113 117
75 79 84 86 85 87 69 82 90 99 91 89 81 67 90 98 109 105 126 126 125 128 130 125 129 127 119 124 126 124 108 127 126 122 121 119 115 111 116 117 118 120 121 118
78 82 84 85 87 81 85 90 91 90 76 76 85 66 83 72 88 93 110 123 127 123 119 125 120 123 129 126 96 102 124 127 126 124 124 124 124 123 123 123 124 115 118 120
85 85 88 89 89 85 88 92 87 66 74 75 86 79 79 62 74 99 97 106 116 118 126 123 128 131 126 123 94 126 130 130 124 115 108 121 127 127 127 127 128 127 126 127
87 88 89 87 85 88 92 93 73 75 100 75 80 60 55 75 66 57 98 91 107 116 124 126 130 132 132 133 133 134 129 129 129 129 131 104 131 129 129 130 105 131 133 130
87 88 80 58 51 63 94 74 76 74 67 75 70 54 50 51 79 60 65 77 104 72 122 127 130 128 124 130 130 130 87 118 134 134 133 130 131 131 130 125 130 135 135 135
68 60 65 68 67 77 65 58 60 59 61 58 47 45 46 47 51 55 59 86 70 76 114 118 123 129 131 131 131 134 136 138 136 136 132 134 138 138 134 131 136 134 136 141
71 77 80 78 72 74 70 79 72 67 65 62 63 60 54 53 52 51 55 59 65 84 80 80 97 120 119 128 126 135 134 137 138 138 138 140 141 141 140 132 142 135 136 94
Wind_Direction
219 219 225 219 223 225 225 218 215 225 225 220 221 224 225 230 230 233 227 228 234 233 238 235 232 241 237 240 245 248 251 253 257 262 266 267 270 276 281 285 284 288 290 299
217 220 222 228 231 225 225 221 224 226 226 225 225 226 224 231 230 233 232 230 235 233 240 241 246 248 245 246 246 246 254 255 258 262 262 267 269 272 279 278 285 293 293 298
230 214 227 223 222 233 229 214 224 225 211 225 221 227 226 229 234 232 235 233 233 236 241 243 241 243 246 245 251 252 256 258 260 263 266 269 272 274 276 280 283 292 292 293
225 238 221 222 231 230 226 232 233 229 231 240 215 222 227 229 232 237 237 237 236 236 237 246 245 243 244 246 251 253 253 260 264 268 266 270 274 275 276 279 285 289 288 293
225 225 218 221 228 227 233 223 226 230 230 224 221 222 233 231 235 235 238 241 241 240 239 247 247 248 248 249 255 257 259 261 265 264 269 271 272 274 279 282 283 287 289 291
232 220 222 223 224 227 228 227 228 228 232 231 228 231 234 230 236 235 237 234 241 242 243 245 244 250 248 254 257 260 262 264 264 267 269 271 273 276 277 280 282 285 287 289
224 222 226 220 223 228 222 236 230 228 242 232 235 228 227 225 226 231 230 236 238 243 244 245 248 248 249 248 258 260 262 264 266 267 269 273 275 275 277 279 281 287 288 290
223 223 225 222 223 225 229 229 231 227 221 224 228 240 224 234 241 239 240 232 235 242 245 244 248 249 252 254 255 259 270 263 266 265 267 269 271 274 276 281 281 283 288 289
224 222 224 223 221 234 227 226 234 231 228 228 225 229 237 238 239 256 232 234 242 245 243 242 245 245 251 254 254 258 260 261 263 267 266 269 271 272 278 291 283 281 283 285
224 222 223 221 229 223 227 234 229 233 228 222 222 232 243 251 242 239 239 233 236 242 247 239 249 246 248 251 251 260 258 260 261 262 267 276 270 271 278 274 277 276 289 284
224 223 222 223 225 224 225 231 229 232 233 228 230 227 229 237 247 245 243 233 244 240 244 255 246 251 255 259 258 257 261 263 263 263 275 266 269 269 278 279 282 285 289 283
225 225 223 223 224 227 226 227 230 233 230 232 230 228 230 236 245 240 246 244 240 239 267 236 252 254 254 256 254 269 262 264 263 268 271 261 273 276 275 272 288 286 289 285
228 226 224 224 226 227 228 227 230 231 234 231 233 233 238 239 242 243 239 248 253 240 243 249 242 252 249 253 253 264 260 267 260 270 271 265 272 276 288 288 277 280 279 283
230 229 227 226 227 230 230 230 230 231 230 232 231 232 236 239 238 239 236 244 251 254 248 250 267 249 252 257 249 261 265 262 267 264 267 268 273 271 275 275 276 279 282 289
232 232 229 230 230 230 231 231 233 232 237 234 231 230 236 239 240 242 241 244 250 249 237 250 253 256 247 253 253 251 251 255 258 262 271 271 265 280 274 272 275 282 279 284
232 233 233 231 233 233 232 233 232 235 236 236 234 236 234 240 241 251 244 245 249 254 257 252 253 259 263 254 253 255 273 257 260 270 277 266 264 278 273 275 284 277 280 285
232 234 235 233 234 234 234 236 239 237 238 240 239 235 236 248 235 234 242 244 251 251 253 251 250 255 259 261 259 257 268 259 260 264 271 266 267 271 273 278 277 280 280 282
232 235 236 234 236 237 239 238 240 241 239 243 241 239 237 238 238 241 253 248 246 253 255 256 257 246 256 248 258 262 263 267 265 265 271 273 271 279 284 280 279 279 280 284
227 231 233 233 235 239 238 241 245 243 242 244 243 243 241 238 237 251 240 240 246 245 249 252 253 254 256 251 254 263 257 263 270 271 275 277 272 278 277 279 280 274 283 284
225 226 230 233 233 237 236 237 240 242 241 248 246 238 242 241 241 241 242 242 244 244 248 246 250 253 254 262 264 259 255 265 268 274 273 274 277 278 277 278 280 281 281 280
228 229 231 233 236 235 237 240 241 244 245 241 245 238 238 241 237 233 240 240 242 242 245 249 255 251 255 256 261 259 268 266 270 273 274 275 276 278 277 278 279 276 271 273
231 232 235 236 237 237 239 242 247 243 240 237 241 238 237 243 241 236 235 240 242 247 247 246 249 254 255 259 266 260 263 266 270 270 269 275 276 276 277 278 280 281 282 284
230 232 234 238 240 240 240 241 232 238 235 239 243 250 247 238 244 246 239 241 241 243 245 246 249 252 254 257 259 262 262 264 266 267 270 271 273 276 277 278 278 282 283 285
231 233 234 230 216 232 238 228 235 234 235 238 241 248 246 243 237 242 246 246 242 248 246 246 247 253 256 257 259 261 269 267 266 269 270 271 273 275 276 279 281 282 285 287
200 206 213 225 219 224 228 231 234 226 230 239 236 240 240 243 244 241 239 245 246 248 246 247 249 251 253 256 258 260 262 263 265 268 270 272 273 274 277 280 282 283 285 286
206 205 215 222 213 219 215 233 237 235 236 233 239 238 236 236 238 238 240 244 247 249 251 254 254 254 257 257 260 260 261 262 264 267 269 271 273 275 277 280 281 284 285 285